{"data":{"norad_id":53018,"epoch":"2026-09-19T13:04:13.230912Z","epoch_age_seconds":151653,"freshness":"FRESH","line1":"1 53018U 22076AJ  26262.54459758  .00002043  00000+0  77585-4 0  9993","line2":"2 53018  53.1627 258.8366 0001326  70.0271 290.0874 15.31705872232747","mean_motion":15.31705872,"eccentricity":0.0001326,"inclination_deg":53.1627,"raan_deg":258.8366,"arg_perigee_deg":70.0271,"mean_anomaly_deg":290.0874,"bstar":7.7585e-5,"rev_number":23274,"period_min":94.012827548917,"perigee_km":469.81433238659,"apogee_km":471.63064992365,"semimajor_km":6848.8594911551,"source":"CELESTRAK","updated_at":"2026-09-20T09:00:40.145564Z"}}